Back to catalog

FENGYUN 1C DEB

AlivePO
NORAD 46450·DEBRIS·🇨🇳 China

Launched May 10, 1999 from Taiyuan Satellite Launch Center

Loading…

Next Passes (next 24 hours)

TLE

FreshSource: Space-Track

Epoch: Sep 13, 2026, 11:52 UTC

1 46450U 99025EZF 26256.49450696  .00001793  00000-0  97563-3 0  9991
2 46450  98.0648  88.0635 0180222 355.8730   4.0945 14.05394818649769

Track FENGYUN 1C DEB in real time with AllMySat

Download on the App Store